sat.trackr.live / text

‹ back to catalog

COMSATBW-1

NORAD 35943 · 2009-054B

PAYLOAD ACTIVE UNKNOWN

§ Identity

Operator
Country
GER
Launch date
2009-10-01
Launch site
FRGUI
Launch vehicle
Mass (kg)
RCS (m²)
7.94

Purposes: comms

External: N2YO · Heavens-Above · Gunter

§ Orbital elements

Epoch: 2026-09-13T02:10:41.949120Z

Period
1,436.12 min
Inclination
0.0240°
Eccentricity
0.0002931
Mean motion
1.00270039 rev/d
Perigee alt
35,774.7 km
Apogee alt
35,799.4 km
Semi-major
42,165.2 km
B*
0.0000e+0
RAAN
185.1502°
Arg perigee
353.5689°
Mean anomaly
269.0615°
Rev number
6,218

§ Raw data

COMSATBW-11 35943U 09054B   26256.09076330  .00000013  00000+0  00000+0 0  99932 35943   0.0240 185.1502 0002931 353.5689 269.0615  1.00270039 62186

JSON: /api/v1/satellites/35943 · /tle

For live sub-satellite position, see the globe view (requires WebGL).

§ Visibility from observer

Set your observer location to see the next 7 days of passes ≥ 10°. The values pass through the URL so the page stays shareable.

No JS? Fill the form by hand. The geolocation button needs JavaScript.